Location: Colossi of Memnon
(25.7167°N, 32.6167°E)
Time: 03:30:19
(UTC+00:00)

Meteosat 1 Rocket2 - Pass Details

Date: 05 March 2021
Orbit: 485 x 2306 km, 28.3° (Epoch: 21 April)

Event Time Altitude Azimuth Distance (km) Brightness Sun altitude
Exits shadow 01:48:45 76° 344° (NNW) 1,226 4.3 -32.3°
Maximum altitude 01:49:01 77° 5° (N) 1,209 4.3 -32.3°
Drops below altitude 10° 01:55:12 10° 91° (E) 2,533 7.0 -30.9°
Sets 01:57:17 0° 93° (E) 3,281 7.9 -30.4°
